Location: Capelle
(50.3413°N, 1.9974°E)
Time: 23:32:54
(UTC+00:00)

BREEZE-M DEB (TANK) - Pass Details

Date: 12 January 2026
Orbit: 318 x 11665 km, 49.7° (Epoch: 9 February)

Event Time Altitude Azimuth Distance (km) Brightness Sun altitude
Rises 16:24:39 0° 218° (SW) 2,798 7.3 -2.4°
Reaches altitude 10° 16:26:10 10° 211° (SSW) 2,213 6.4 -2.6°
Maximum altitude 16:30:48 48° 136° (SE) 1,639 4.4 -3.3°
Drops below altitude 10° 16:45:58 10° 69° (ENE) 6,952 7.0 -5.4°
Enters shadow 16:49:29 - 68° (ENE) 8,123 7.3 -5.9°
